K1IC Weather Reports


time (UTC)temp
C
wind
direction
speed
KPH
gust
KPH
rain 1hr
cm
rain 24hr
cm
rain mn
cm
humidity
%
barometer
mb
20260510223217 15 0.0 0.0 0.00 0.20 0.00 90 1011.9
20260510222217 15 0.0 0.0 0.00 0.25 0.00 90 1011.9
20260510221337 14 0.0 0.0 0.00 0.28 0.00 91 1011.9
20260510220217 13 0.0 0.0 0.00 0.28 0.00 91 1012.0
20260510215217 13 0.0 0.0 0.00 0.30 0.00 91 1012.0
20260510214217 13 135 3.2 4.8 0.00 0.33 0.00 90 1011.9
20260510213237 13 0.0 1.6 0.00 0.36 0.00 90 1011.7
20260510212217 14 113 1.6 1.6 0.00 0.36 0.00 90 1011.7
20260510211237 14 0.0 0.0 0.00 0.36 0.00 90 1011.5
20260510210217 14 113 1.6 4.8 0.00 0.36 0.00 89 1011.5
20260510205216 15 135 6.4 9.7 0.00 0.36 0.00 87 1011.6
20260510204217 16 135 3.2 4.8 0.00 0.36 0.00 86 1011.4
20260510203216 16 113 3.2 3.2 0.00 0.36 0.00 87 1011.5
20260510202217 15 135 3.2 4.8 0.00 0.36 0.00 87 1011.5
20260510201217 15 135 3.2 4.8 0.00 0.36 0.00 88 1011.4
20260510200216 15 113 1.6 3.2 0.00 0.36 0.00 87 1011.6
20260510195236 15 0.0 1.6 0.00 0.36 0.00 87 1011.7
20260510194216 16 135 1.6 4.8 0.00 0.38 0.00 85 1011.6
20260510193236 16 0.0 1.6 0.00 0.41 0.00 83 1011.9
20260510192216 16 0.0 0.0 0.00 0.43 0.00 85 1011.9
20260510191237 16 0.0 1.6 0.00 0.48 0.00 86 1011.9
20260510190216 15 315 1.6 3.2 0.00 0.51 0.00 87 1012.2
20260510185216 15 0.0 1.6 0.00 0.53 0.00 87 1012.1
20260510184216 15 0.0 1.6 0.00 0.56 0.00 87 1012.1
20260510183216 15 158 3.2 6.4 0.00 0.61 0.00 87 1012.1
20260510182236 16 135 3.2 4.8 0.00 0.64 0.00 83 1012.1
20260510181236 18 135 4.8 11.3 0.00 0.66 0.00 81 1012.0
20260510180216 17 293 3.2 4.8 0.00 0.66 0.00 81 1012.2
20260510175216 17 248 3.2 6.4 0.00 0.69 0.00 82 1012.3
20260510174216 17 248 1.6 3.2 0.00 0.71 0.00 81 1012.3
20260510173236 17 203 1.6 3.2 0.00 0.71 0.00 85 1012.2
20260510172216 16 0.0 1.6 0.00 0.71 0.00 85 1012.4
20260510171216 16 0.0 0.0 0.00 0.71 0.00 87 1012.3
20260510170236 16 0.0 1.6 0.00 0.71 0.00 85 1012.3
20260510165216 15 248 1.6 4.8 0.00 0.71 0.00 86 1012.5
20260510164217 15 0.0 1.6 0.00 0.71 0.00 86 1012.5
20260510163216 16 248 1.6 3.2 0.00 0.71 0.00 85 1012.4
20260510162256 15 248 1.6 3.2 0.00 0.71 0.00 86 1012.5
20260510161216 15 293 3.2 4.8 0.00 0.71 0.00 86 1012.5
20260510160216 15 0.0 1.6 0.00 0.71 0.00 87 1012.5
20260510155216 15 0.0 1.6 0.00 0.71 0.00 87 1012.5
20260510154216 15 248 1.6 4.8 0.00 0.71 0.00 87 1012.6
20260510153216 15 0.0 0.0 0.00 0.71 0.00 89 1012.8
20260510152236 14 0.0 1.6 0.00 0.71 0.00 90 1013.0
20260510151216 13 0.0 1.6 0.00 0.71 0.00 91 1013.0
20260510150216 13 135 1.6 3.2 0.00 0.71 0.00 90 1013.0
20260510145216 12 135 1.6 3.2 0.00 0.71 0.00 91 1012.9
20260510144216 12 113 1.6 1.6 0.00 0.71 0.00 93 1012.8
20260510143225 12 158 1.6 3.2 0.00 0.71 0.00 93 1012.6
20260510142216 12 0.0 0.0 0.00 0.71 0.00 94 1012.3
20260510141216 11 113 3.2 3.2 0.00 0.71 0.00 94 1012.4
20260510140216 11 135 3.2 3.2 0.00 0.71 0.00 94 1012.5
20260510135216 11 0.0 1.6 0.00 0.71 0.00 94 1012.5
20260510134236 11 158 3.2 4.8 0.00 0.71 0.00 94 1012.4
20260510133216 11 158 3.2 4.8 0.00 0.71 0.00 94 1012.3
20260510132256 11 113 4.8 6.4 0.00 0.71 0.00 94 1012.4
20260510131236 11 113 1.6 3.2 0.00 0.71 0.00 95 1012.4
20260510130215 11 113 1.6 3.2 0.00 0.71 0.00 95 1012.4
20260510125216 11 158 3.2 4.8 0.00 0.71 0.00 95 1012.2
20260510124215 11 0.0 0.0 0.00 0.71 0.00 95 1012.1
20260510123216 11 0.0 1.6 0.00 0.71 0.00 96 1011.9
20260510122216 11 0.0 1.6 0.00 0.71 0.00 95 1011.6
20260510121235 11 0.0 3.2 0.00 0.71 0.00 95 1011.7
20260510120217 11 113 1.6 1.6 0.00 0.71 0.00 96 1011.6
20260510115215 11 135 1.6 3.2 0.00 0.71 0.00 96 1011.6
20260510114216 11 135 1.6 4.8 0.00 0.71 0.00 96 1011.4
20260510113216 11 135 3.2 4.8 0.00 0.71 0.00 96 1011.4
20260510112216 11 113 1.6 3.2 0.00 0.71 0.00 96 1011.4
20260510111215 11 135 3.2 4.8 0.00 0.71 0.00 96 1011.4
20260510110215 11 113 3.2 4.8 0.00 0.71 0.00 96 1011.4
20260510105215 11 0.0 0.0 0.00 0.71 0.00 96 1011.4
20260510104215 11 0.0 0.0 0.00 0.71 0.00 96 1011.2
20260510103215 11 0.0 0.0 0.00 0.71 0.00 96 1011.3
20260510102236 11 0.0 0.0 0.00 0.71 0.00 96 1011.3
20260510101215 11 0.0 0.0 0.00 0.71 0.00 96 1011.2
20260510100215 11 0.0 0.0 0.00 0.71 0.00 96 1011.3
20260510095215 11 0.0 0.0 0.00 0.71 0.00 96 1011.3
20260510094215 11 0.0 0.0 0.00 0.71 0.00 96 1011.4
20260510093235 11 0.0 0.0 0.00 0.71 0.00 96 1011.5
20260510092215 11 0.0 0.0 0.00 0.71 0.00 96 1011.6
20260510091217 11 0.0 0.0 0.00 0.71 0.00 96 1011.6
20260510090217 11 0.0 0.0 0.00 0.71 0.00 96 1011.5
20260510085217 11 0.0 0.0 0.00 0.71 0.00 96 1011.4
20260510084217 11 0.0 0.0 0.00 0.71 0.00 96 1011.6
20260510083217 11 0.0 0.0 0.00 0.71 0.00 96 1011.5
20260510082217 11 0.0 0.0 0.00 0.71 0.00 96 1010.9
20260510081217 11 0.0 0.0 0.00 0.71 0.00 96 1010.7
20260510080217 11 0.0 0.0 0.00 0.71 0.00 96 1010.7
20260510075217 11 0.0 0.0 0.00 0.71 0.00 96 1010.6
20260510074217 11 0.0 0.0 0.00 0.71 0.00 96 1010.6
20260510073237 11 0.0 0.0 0.00 0.74 0.00 96 1010.7
20260510072217 11 0.0 0.0 0.00 0.74 0.00 96 1010.6
20260510071217 11 0.0 0.0 0.00 0.74 0.00 96 1010.7
20260510070218 11 0.0 0.0 0.00 0.74 0.00 96 1010.7
20260510065217 11 0.0 0.0 0.00 0.74 0.00 96 1010.6
20260510064217 11 0.0 0.0 0.00 0.74 0.00 96 1010.7
20260510063217 11 0.0 0.0 0.00 0.74 0.00 96 1010.6
20260510062217 11 0.0 0.0 0.00 0.74 0.00 95 1010.4
20260510061217 11 0.0 0.0 0.00 0.74 0.00 95 1010.3
20260510060217 11 0.0 0.0 0.00 0.74 0.00 96 1010.3
20260510055217 11 0.0 0.0 0.00 0.74 0.00 95 1010.4
20260510054217 11 0.0 0.0 0.00 0.74 0.00 95 1010.6
20260510053216 11 0.0 0.0 0.00 0.74 0.00 95 1010.7
20260510052217 11 0.0 0.0 0.00 0.74 0.00 95 1010.6
20260510051217 11 0.0 0.0 0.00 0.74 0.00 95 1010.8
20260510050217 11 0.0 0.0 0.00 0.74 0.00 95 1010.7
20260510045217 11 0.0 0.0 0.00 0.74 0.00 95 1010.7
20260510044237 11 0.0 0.0 0.00 0.74 0.00 95 1010.7
20260510043216 11 0.0 0.0 0.00 0.74 0.00 95 1010.6
20260510042217 11 0.0 0.0 0.00 0.74 0.00 96 1010.5
20260510041217 11 0.0 0.0 0.00 0.74 0.00 95 1010.3
20260510040235 11 0.0 0.0 0.00 0.74 0.00 95 1010.2
20260510035216 11 0.0 0.0 0.00 0.74 0.74 95 1010.2
20260510034216 11 0.0 0.0 0.00 0.74 0.74 95 1010.2
20260510033215 11 0.0 0.0 0.00 0.74 0.74 95 1010.1
20260510032235 11 0.0 0.0 0.00 0.74 0.74 95 1010.1
20260510031235 11 0.0 0.0 0.00 0.74 0.74 95 1010.2
20260510030215 11 0.0 0.0 0.00 0.74 0.74 95 1010.2
20260510025235 11 0.0 0.0 0.00 0.74 0.74 95 1010.3
20260510024215 11 0.0 0.0 0.00 0.74 0.74 95 1010.4
20260510023215 11 0.0 0.0 0.00 0.74 0.74 95 1010.4
20260510022215 11 0.0 0.0 0.00 0.74 0.74 95 1010.3
20260510021216 11 0.0 0.0 0.00 0.74 0.74 95 1010.3
20260510020215 11 0.0 0.0 0.00 0.74 0.74 95 1010.3
20260510015215 11 0.0 0.0 0.00 0.74 0.74 95 1010.3
20260510014215 11 0.0 0.0 0.00 0.74 0.74 95 1010.3
20260510013215 11 0.0 0.0 0.00 0.74 0.74 95 1010.1
20260510012215 11 0.0 0.0 0.00 0.74 0.74 95 1009.9
20260510011217 11 0.0 0.0 0.00 0.74 0.74 95 1010.0
20260510010217 11 0.0 0.0 0.00 0.74 0.74 95 1009.9
20260510005217 11 0.0 0.0 0.00 0.74 0.74 95 1009.8
20260510004217 11 0.0 0.0 0.00 0.74 0.74 95 1009.8
20260510003257 11 0.0 0.0 0.00 0.74 0.74 95 1009.7
20260510002217 11 0.0 0.0 0.00 0.74 0.74 95 1009.7
20260510001217 11 0.0 0.0 0.00 0.74 0.74 95 1009.7
20260510000219 11 113 1.6 3.2 0.03 0.74 0.74 95 1009.7
20260509235217 12 0.0 0.0 0.08 0.74 0.74 95 1009.9
20260509234217 11 0.0 0.0 0.10 0.74 0.74 94 1009.6
20260509233217 11 0.0 3.2 0.20 0.74 0.74 94 1009.2
20260509232217 11 0.0 1.6 0.25 0.74 0.74 94 1008.9
20260509231217 12 135 6.4 8.0 0.28 0.74 0.74 94 1009.8
20260509230217 12 0.0 1.6 0.25 0.71 0.71 94 1010.3
20260509225217 12 0.0 1.6 0.23 0.66 0.66 94 1010.1
20260509224217 12 0.0 0.0 0.23 0.64 0.64 94 1010.3